Weather in Cochrane

Chile     47°15′03″S   72°34′42″W
temp.,
°C
wind,
m/s
gust,
m/s
humid.,
%
clouds,
%
prec.,
mm/h
press.,
hPa
HPBL,
m
11 april, sun
sun1123:00+4w239790 0.1 1013131
02:00+3w239962 0.1 101265
05:00+3w229997 0.0 101287
08:00+3wnw229885 0.0 1012107
11:00+8w337914 0.0 1009363
14:00+9w2283100 0.8 1005422
17:00+7nw1297100 7.2 1003187
20:00+7nw2399100 14.3 1002113
12 april, mon
mon1223:00+7wnw2299100 10.1 1001113
02:00+6sw2399100 22.5 1002126
05:00+6sw259966 1.6 1004165
08:00+5w22967 1.7 100647
11:00+8w23796 0.0 1009398
14:00+10wsw357133 0.1 1009851
17:00+10w23725 0.0 1009283
20:00+6wnw229124 0.0 101129
13 april, tue
tue1323:00+4w23945 0.0 101347
02:00+3w23945 0.0 101354
05:00+2w22946 0.0 101337
08:00+2w12940 0.0 101333
11:00+6w2285100 0.1 101186
14:00+6ssw0193100 0.6 100858
17:00+7w129537 0.4 100697
20:00+7wnw129983 0.4 100440
14 april, wed
wed1423:00+7nw229990 0.0 100169
02:00+8n229847 0.0 99744
05:00+7wsw71187100 2.7 10011167
08:00+3w349592 5.1 1007364
11:00+5w357630 0.1 1008816
14:00+7w485345 0.6 10091825
17:00+6w386430 0.1 10101285
20:00+2w22916 0.1 101357
15 april, thu
thu1523:00+1wnw229836 0.0 101467
02:00+1wnw129666 0.0 101484
05:000nw119662 0.0 101255
08:00+2wnw129497 0.0 1011131
11:00+4nw2397100 0.2 1010424
14:00+4nw249598 1.3 1008371
17:00+4nw349599 0.8 1009402
20:00+3wnw2398100 1.4 1010233